This is the latest recevied weather packets stored in our database for station/object KW4UJ. If no packets are shown the sender has not sent any weather packets the latest 1 day(s).
| Time | Temp. | Humidity | Pressure | Rain* | Wind** | Luminosity | Snow |
|---|---|---|---|---|---|---|---|
| 1778089751 | 18.89° C | 83% | 1008.7 hPa | 0 mm | - | 284 W/m² | - |
| 1778089146 | 18.89° C | 84% | 1008.5 hPa | 0 mm | - | 284 W/m² | - |
| 1778088236 | 18.33° C | 85% | 1008.8 hPa | 0 mm | - | 221 W/m² | - |
| 1778086117 | 17.78° C | 88% | 1008.9 hPa | 0 mm | - | 246 W/m² | - |
| 1778085814 | 17.78° C | 88% | 1009.1 hPa | 0 mm | - | 205 W/m² | - |
| 1778085206 | 17.78° C | 90% | 1009.1 hPa | 0 mm | - | 272 W/m² | - |
| 1778084902 | 17.78° C | 90% | 1009.1 hPa | 0 mm | - | 314 W/m² | - |
| 1778084600 | 17.22° C | 92% | 1009.1 hPa | 0 mm | - | 345 W/m² | - |
| 1778084297 | 17.22° C | 93% | 1009.3 hPa | 0 mm | - | 360 W/m² | - |
| 1778083692 | 16.67° C | 94% | 1009.2 hPa | 0 mm | - | 133 W/m² | - |
| 1778083388 | 16.67° C | 93% | 1009.3 hPa | 0 mm | - | 170 W/m² | - |
| 1778082783 | 16.67° C | 95% | 1009.1 hPa | 0 mm | - | 200 W/m² | - |
| 1778081044 | 16.11° C | 97% | 1009.4 hPa | 0 mm | - | 245 W/m² | - |
| 1778080743 | 15.56° C | 96% | 1009.5 hPa | 1.27 mm | - | 225 W/m² | - |
| 1778079833 | 15.56° C | 96% | 1009.7 hPa | 3.05 mm | - | 63 W/m² | - |
| 1778079530 | 15.56° C | 96% | 1009.8 hPa | 1.27 mm | - | 43 W/m² | - |
| 1778079226 | 15.56° C | 96% | 1009.9 hPa | 1.27 mm | - | 58 W/m² | - |
| 1778078924 | 15.56° C | 96% | 1010.1 hPa | 1.78 mm | - | 69 W/m² | - |
| 1778078620 | 15.56° C | 96% | 1010.1 hPa | 1.78 mm | - | 106 W/m² | - |
| 1778076505 | 15.56° C | 96% | 1010.1 hPa | 1.27 mm | - | 63 W/m² | - |
| 1778074685 | 15.56° C | 95% | 1010.1 hPa | 4.32 mm | - | 53 W/m² | - |
| 1778074382 | 15.56° C | 95% | 1010.4 hPa | 4.83 mm | - | 40 W/m² | - |
| 1778073776 | 15.56° C | 94% | 1010.5 hPa | 4.83 mm | - | 23 W/m² | - |
| 1778073474 | 15.56° C | 94% | 1010.3 hPa | 4.83 mm | - | 32 W/m² | - |
| 1778071959 | 16.11° C | 92% | 1010.1 hPa | 0 mm | - | 34 W/m² | - |
* Rain latest hour (hover to see other rain measurements)
** Current wind speed in m/s (hover to see current wind gust speed)